Regional Weather Roundup
Issued by NWS

Home | Current Version | Previous Version | Text Only | Print | Product List | Glossary Off
Versions: 1 2 3 4 5 6 7 8 9 10 11 12 13 14 15 16 17 18 19 20 21 22 23 24 25 26 27 28 29 30 31 32 33 34 35 36 37 38 39 40 41 42 43 44 45 46 47 48 49 50

000
ASUS43 KLOT 070202
RWRIL

ILLINOIS REGIONAL WEATHER ROUNDUP
NATIONAL WEATHER SERVICE CHICAGO/ROMEOVILLE IL
900 PM CDT WED MAY 06 2015

NOTE: "FAIR" INDICATES FEW OR NO CLOUDS BELOW 12,000 FEET WITH NO
SIGNIFICANT WEATHER AND/OR OBSTRUCTIONS TO VISIBILITY.

* THESE STATIONS ARE NOT UNDER NWS QUALITY CONTROL. THEY ALSO MAY NOT
  REPORT WEATHER SUCH AS PRECIPITATION OR FOG.

ILZ001-002-007-009-015-016-024-070300-
NORTHWEST ILLINOIS

CITY           SKY/WX    TMP DP  RH WIND       PRES   REMARKS
MOLINE         MOCLDY    65  60  84 SE3       29.98S
STERLING*      PTCLDY    70  55  60 W6        30.01R
$$

ILZ003-004-008-010-011-017-018-070300-
NORTH CENTRAL ILLINOIS

CITY           SKY/WX    TMP DP  RH WIND       PRES   REMARKS
ROCKFORD       PTCLDY    70  59  68 E12       30.04R
$$

ILZ005-006-012>014-019>023-070300-
NORTHEAST ILLINOIS

CITY           SKY/WX    TMP DP  RH WIND       PRES   REMARKS
CHICAGO-OHARE  MOCLDY    60  53  77 NE7       30.06S
CHICAGO-MIDWAY MOCLDY    60  53  77 NE7       30.07R
AURORA         MOCLDY    68  58  70 E7        30.05R
WAUKEGAN       CLOUDY    49  49 100 NE5       30.08S FOG
DUPAGE AIRPORT MOCLDY    64  57  78 E7        30.05S HAZE
WHEELING       MOCLDY    53  50  89 E5        30.09R
NORTHERLY ISL    N/A     49  47  93 N3          N/A
$$

LMZ740>746-070300-
SOUTHERN LAKE MICHIGAN

STATION/POSITION SKY/WX   TEMP    WIND        PRES    VSBY  WAVE
                          AIR SEA DIR/SP/G                  HT/PER
                          (F)     (DEG/KT/KT) (MB)    (MI)  (FT/S)
HARRISON CRIB              47     340/  6/  7   N/A
BURNHAM HARBOR             49      10/  4/  6   N/A
CALUMET HARBOR             50     350/  4/  5   N/A
BURNS HARBOR               58      80/  9/ 12 1018.6S
MICHIGAN CITY              60      40/ 12/ 13   N/A
MICHIGAN CITY 6N           56 54   80/  6/  8   N/A           1
ST. JOSEPH                 57 52   50/  8/  8   N/A           1/ 2
$$

ILZ025>027-034>036-040-047-049-050-058-095>099-070300-
WEST-CENTRAL ILLINOIS

CITY           SKY/WX    TMP DP  RH WIND       PRES   REMARKS
QUINCY         CLOUDY    71  59  65 SE5       29.98R
$$

ILZ028>032-037-038-041>044-048-051>054-059>061-070300-
CENTRAL ILLINOIS

CITY           SKY/WX    TMP DP  RH WIND       PRES   REMARKS
DECATUR        CLEAR     73  52  47 S6        30.05R
PEORIA         CLEAR     75  52  44 S6        30.01R
SPRINGFIELD    CLEAR     75  53  46 S9        30.02R
TAYLORVILLE    NOT AVBL
$$

ILZ033-039-045-046-055>057-062-063-070300-
EAST-CENTRAL ILLINOIS

CITY           SKY/WX    TMP DP  RH WIND       PRES   REMARKS
CHAMPAIGN      PTCLDY    73  49  42 S7        30.06R
MATTOON        CLEAR     72  53  51 S3        30.06R
$$

ILZ079-100>102-070300-
SOUTHWEST ILLINOIS

CITY           SKY/WX    TMP DP  RH WIND       PRES   REMARKS
ALTON          CLEAR     70  54  56 SE9       30.02R
CAHOKIA*       CLEAR     74  53  48 SE6       30.01R
$$

ILZ064>066-069>071-074>076-080>082-084>086-088>090-092>094-070300-
SOUTH-CENTRAL ILLINOIS

CITY           SKY/WX    TMP DP  RH WIND       PRES   REMARKS
CARBONDALE     CLEAR     70  55  59 SE6       30.04R
MT. VERNON     CLEAR    N/A N/A N/A CALM      30.06R
$$

ILZ067-068-072-073-078-083-087-091-070300-
SOUTHEAST ILLINOIS

CITY           SKY/WX    TMP DP  RH WIND       PRES   REMARKS
LAWRENCEVILLE  CLEAR     72  57  59 SE6       30.08R
$$

ABBREVIATIONS USED IN REMARKS
   TC - TEMPERATURE IN CELSIUS
  WCI - WIND CHILL INDEX
   HX - HEAT INDEX
  VSB - VISIBILITY
$$



USA.gov is the U.S. government's official web portal to all federal, state and local government web resources and services.